Terminal Aerodrome Forecast
Issued by NWS Portland, OR

Home | Current Version | Previous Version | Text Only | Print | Product List | Glossary On
Versions: 1 2 3 4 5 6 7 8 9 10 11 12 13 14 15 16 17 18 19 20 21 22 23 24 25 26 27 28 29 30 31 32 33 34 35 36 37 38 39 40 41 42 43 44 45
507
FTUS46 KPQR 101724
TAFPDX
TAF
KPDX 101724Z 1018/1118 10006KT P6SM SCT060 BKN080 OVC100
     FM102100 13005KT P6SM BKN040 OVC100
     FM110600 09005KT P6SM OVC050=

USA.gov is the U.S. government's official web portal to all federal, state and local government web resources and services.